Location: Lafig�re
(44.4503°N, 4.0357°E)
Time: 09:36:39
(UTC+00:00)

Cosmos 2150 Rocket - Pass Details

Date: 19 January 2021
Orbit: 748 x 808 km, 74.0° (Epoch: 07 March)

Event Time Altitude Azimuth Distance (km) Brightness Sun altitude
Exits shadow 05:36:57 - 346° (NNW) 3,244 7.0 -17.1°
Reaches altitude 10° 05:39:32 10° 357° (N) 2,335 6.3 -16.7°
Maximum altitude 05:44:16 32° 60° (ENE) 1,331 5.7 -15.8°
Drops below altitude 10° 05:49:02 10° 122° (ESE) 2,358 7.7 -15.0°
Sets 05:51:41 0° 133° (SE) 3,292 8.4 -14.5°
